Regional Weather Roundup
Issued by NWS

Home | Current Version | Previous Version | Text Only | Print | Product List | Glossary On
Versions: 1 2 3 4 5 6 7 8 9 10 11 12 13 14 15 16 17 18 19 20 21 22 23 24 25 26 27 28 29 30 31 32 33 34 35 36 37 38 39 40 41 42 43 44 45 46 47 48 49 50
266
ASUS43 KLMK 250510
RWRKY
NATIONAL WEATHER SERVICE LOUISVILLE KY
1200 AM EST SAT NOV 25 2017

NOTE "FAIR" INDICATES FEW OR NO CLOUDS BELOW 12,000 FEET
WITH NO SIGNIFICANT WEATHER AND/OR OBSTRUCTIONS TO VISIBILITY.

KYZ001>023-026-027-061>063-070>075-250600-
WESTERN AND SOUTH CENTRAL KENTUCKY

CITY           SKY/WX    TMP DP  RH WIND       PRES   REMARKS
PADUCAH        CLOUDY    54  31  41 SW12      29.83R
HENDERSON      CLOUDY    53  34  48 SW17      29.79F
OWENSBORO      PTCLDY    49  32  52 S8        29.82R
HOPKINSVILLE   CLEAR     52  27  37 S9        29.85R
BOWLING GREEN  PTCLDY    52  30  43 SW9       29.86R
GLASGOW        CLEAR     49  32  51 S7        29.86R
$$

KYZ024-025-028>034-038-045-046-053-250600-
NORTH CENTRAL KENTUCKY

CITY           SKY/WX    TMP DP  RH WIND       PRES   REMARKS
LOUISVILLE/SDF PTCLDY    54  26  34 SW10      29.80R
LOUISVILLE/LOU CLEAR     53  29  39 SW12G21   29.81R
FORT KNOX      CLEAR     51  27  39 SW12      29.80R
$$

KYZ035>037-039>044-047>052-055>060-089>105-250600-
NORTHEAST KENTUCKY

CITY           SKY/WX    TMP DP  RH WIND       PRES   REMARKS
LEXINGTON      CLEAR     46  30  53 S9        29.81S
COVINGTON      CLEAR     50  28  42 SW12      29.77R
FRANKFORT      CLEAR     50  29  44 S13       29.78F
$$

KYZ054-064>069-076>088-106>120-250600-
SOUTHEAST KENTUCKY

CITY           SKY/WX    TMP DP  RH WIND       PRES   REMARKS
JACKSON        PTCLDY    48  32  53 VRB5      29.86F
LONDON         CLEAR     46  35  65 S6        29.87F
SOMERSET       CLEAR     46  36  66 CALM      29.89S
MIDDLESBORO    CLEAR     37  36  96 CALM      29.93F
MONTICELLO     CLEAR     39  34  82 W9        29.90S WCI  33
$$





USA.gov is the U.S. government's official web portal to all federal, state and local government web resources and services.